Flag for U.S.A. Weather past 2 weeks in Oklahoma City, Oklahoma, U.S.A.

Now
82 °F

Passing clouds.


Feels Like: 82 °F
Forecast: 71 / 95 °F
Wind: 8 mph from Southeast

Location: Will Rogers World Airport

Current Time: Aug 30, 2014 at 10:02:03 PM

Latest Report: Aug 30, 2014 at 8:52 PM


Visibility: 10 mi

Pressure: 29.84 "Hg

Humidity: 48%

Dew point: 60 °F

Location of Oklahoma CityLocation

Historic Weather in Oklahoma City — Graph

°F

Oklahoma City temperature yesterday

Maximum temperature yesterday: 84 °F (at 4:52 PM)
Minimum temperature yesterday: 67 °F (at 5:52 AM)
Average temperature yesterday: 74 °F

Past Weeks' High & Low Weather Summary

 TemperatureHumidityPressure
High100 °F (Aug 18, 3:52 PM)90% (Aug 29, 5:52 AM)30.07 "Hg (Aug 29, 5:52 AM)
Low66 °F (Aug 23, 5:52 AM)22% (Aug 23, 2:52 PM)29.75 "Hg (Aug 18, 5:52 PM)
Average83 °F57%29.88 "Hg
* Reported Aug 15 8:52 PM — Aug 30 8:52 PM, Oklahoma City, Weather by CustomWeather, © 2014

Note: Actual official high and low records may vary slightly from our data, if they occured in-between our weather recording intervals... More about our weather records

Advertising

Oklahoma City weather history for previous 24 hours

 ConditionsComfort  
Time TempWeatherWind HumidityBarometerVisibility
8:52 PM
Aug 30
82 °FPassing clouds.8 mph48%29.84 "Hg10 mi
7:52 PM86 °FScattered clouds.5 mph39%29.83 "Hg10 mi
6:52 PM92 °FScattered clouds.3 mph30%29.83 "Hg10 mi
5:52 PM95 °FScattered clouds.No wind23%29.82 "Hg10 mi
4:52 PM96 °FScattered clouds.No wind23%29.83 "Hg10 mi
3:52 PM95 °FScattered clouds.5 mph24%29.85 "Hg10 mi
2:52 PM95 °FScattered clouds.No wind26%29.87 "Hg10 mi
1:52 PM94 °FPassing clouds.7 mph30%29.89 "Hg10 mi
12:52 PM92 °FPassing clouds.5 mph35%29.91 "Hg10 mi
11:52 AM90 °FPassing clouds.No wind41%29.92 "Hg10 mi
10:52 AM86 °FPassing clouds.8 mph53%29.92 "Hg10 mi
9:52 AM83 °FPassing clouds.10 mph61%29.92 "Hg10 mi
8:52 AM76 °FPassing clouds.7 mph77%29.92 "Hg10 mi
7:52 AM70 °FClear.No wind87%29.92 "Hg10 mi
6:52 AM68 °FPassing clouds.3 mph90%29.92 "Hg10 mi
5:52 AM68 °FPassing clouds.5 mph90%29.91 "Hg9 mi
4:52 AM68 °FPassing clouds.6 mph90%29.91 "Hg10 mi
3:52 AM69 °FPassing clouds.3 mph87%29.90 "Hg10 mi
2:52 AM69 °FPassing clouds.7 mph87%29.90 "Hg10 mi
1:52 AM70 °FPassing clouds.6 mph84%29.89 "Hg10 mi
12:52 AM68 °FPassing clouds.3 mph90%29.89 "Hg10 mi
11:52 PM
Aug 29
70 °FPassing clouds.7 mph87%29.89 "Hg10 mi
10:52 PM70 °FPassing clouds.7 mph87%29.88 "Hg10 mi
Weather by CustomWeather, © 2014

See weather overviewHow to use our weather pages